Home > Weather > Moers > Past weeks

Flag for Germany Past Weather in Moers, North Rhine-Westphalia, Germany — Yesterday and Last 2 Weeks

Now
55 °F

Passing clouds.


Feels Like: 54 °F
Forecast: 54 / 67 °F
Wind: 7 mph from South

Location: Duesseldorf

Current Time: Jun 27, 2016 at 4:27:59 AM

Latest Report: Jun 27, 2016 at 3:50 AM


Visibility: N/A

Pressure: 30.07 "Hg

Humidity: 88%

Dew Point: 52 °F

Location of MoersLocation

Past Weather in Moers — Graph

°F

Moers Temperature Yesterday

Maximum temperature yesterday: 68 °F (at 3:20 PM)
Minimum temperature yesterday: 52 °F (at 4:20 AM)
Average temperature yesterday: 59 °F

High & Low Weather Summary for the Past Weeks

 TemperatureHumidityPressure
High91 °F (Jun 23, 3:20 PM)100% (Jun 12, 4:20 AM)30.27 "Hg (Jun 12, 4:20 AM)
Low50 °F (Jun 16, 2:20 AM)44% (Jun 23, 5:20 PM)29.45 "Hg (Jun 14, 6:20 PM)
Average63 °F85%29.89 "Hg
* Reported Jun 12 3:20 AM — Jun 27 3:20 AM, Moers, Weather by CustomWeather, © 2016

Note: Actual official high and low records may vary slightly from our data, if they occured in-between our weather recording intervals... More about our weather records

Advertising

Moers Weather History for the Previous 24 Hours

Scroll right to see more
 ConditionsComfort  
Time TempWeatherWind HumidityBarometerVisibility
3:20 AM
Mon, Jun 27
55 °FPassing clouds.8 mph88%30.07 "HgN/A
2:50 AM55 °FPassing clouds.7 mph94%30.07 "HgN/A
2:20 AM55 °FPassing clouds.8 mph88%30.09 "HgN/A
1:50 AM54 °FPassing clouds.8 mph94%30.09 "HgN/A
1:20 AM54 °FPassing clouds.7 mph94%30.07 "HgN/A
12:50 AM54 °FPassing clouds.7 mph94%30.07 "HgN/A
12:20 AM54 °FPassing clouds.7 mph94%30.07 "HgN/A
11:50 PM
Sun, Jun 26
55 °FPassing clouds.8 mph94%30.07 "HgN/A
11:20 PM57 °FPassing clouds.9 mph88%30.07 "HgN/A
10:50 PM57 °FPassing clouds.8 mph88%30.07 "HgN/A
10:20 PM57 °FScattered clouds.8 mph88%30.07 "HgN/A
9:50 PM57 °FScattered clouds.8 mph88%30.07 "HgN/A
9:20 PM59 °FPassing clouds.9 mph82%30.04 "HgN/A
8:50 PM61 °FSprinkles. Scattered clouds.10 mph77%30.04 "HgN/A
8:20 PM63 °FScattered showers. Passing clouds.9 mph73%30.04 "HgN/A
7:50 PM63 °FScattered clouds.8 mph73%30.04 "HgN/A
7:20 PM64 °FScattered clouds.8 mph73%30.04 "HgN/A
6:50 PM64 °FScattered clouds.8 mph73%30.04 "HgN/A
6:20 PM64 °FScattered clouds.6 mph68%30.04 "HgN/A
5:50 PM63 °FScattered clouds.2 mph73%30.04 "HgN/A
5:20 PM61 °FSprinkles. Scattered clouds.2 mph77%30.07 "HgN/A
4:50 PM59 °FScattered showers. Scattered clouds.5 mph82%30.07 "HgN/A
4:20 PM59 °FScattered showers. Scattered clouds.13 mph82%30.07 "HgN/A
3:50 PM55 °FStrong thunderstorms. Broken clouds.18 mph94%30.07 "HgN/A
3:20 PM68 °FScattered showers. Scattered clouds.10 mph60%30.04 "HgN/A
2:50 PM66 °FScattered clouds.9 mph64%30.04 "HgN/A
2:20 PM64 °FSprinkles. Scattered clouds.13 mph68%30.04 "HgN/A
1:50 PM66 °FScattered clouds.14 mph60%30.04 "HgN/A
1:20 PM66 °FScattered clouds.10 mph64%30.04 "HgN/A
12:50 PM64 °FScattered clouds.10 mph64%30.04 "HgN/A
12:20 PM63 °FBroken clouds.14 mph68%30.04 "HgN/A
11:50 AM64 °FBroken clouds.13 mph68%30.04 "HgN/A
11:20 AM61 °FPartly sunny.13 mph77%30.07 "HgN/A
10:50 AM59 °FPartly sunny.15 mph82%30.07 "HgN/A
10:20 AM59 °FPartly sunny.12 mph77%30.07 "HgN/A
9:50 AM59 °FPartly sunny.15 mph77%30.07 "HgN/A
9:20 AM57 °FPartly sunny.10 mph88%30.07 "HgN/A
8:50 AM57 °FPartly sunny.13 mph82%30.04 "HgN/A
8:20 AM57 °FPartly sunny.12 mph82%30.04 "HgN/A
7:50 AM55 °FPartly sunny.13 mph94%30.04 "HgN/A
7:20 AM57 °FScattered clouds.12 mph88%30.04 "HgN/A
6:50 AM55 °FPassing clouds.10 mph94%30.04 "HgN/A
6:20 AM54 °FPassing clouds.10 mph94%30.04 "HgN/A
5:50 AM54 °FPassing clouds.7 mph94%30.01 "HgN/A
5:20 AM54 °FPassing clouds.6 mph94%30.01 "HgN/A
4:50 AM54 °FPassing clouds.6 mph100%30.01 "HgN/A
4:20 AM52 °FCool.6 mph100%30.01 "HgN/A
Weather by CustomWeather, © 2016

See weather overviewHow to use our weather pages